Time,TemperatureF,DewpointF,PressureIn,WindDirection,WindDirectionDegrees,WindSpeedMPH,WindSpeedGustMPH,Humidity,HourlyPrecipIn,Conditions,Clouds,dailyrainin,SoftwareType,DateUTC
2013-06-06 00:00:00,67.0,-99.9,-100.00,NW,309,7.0,-999.0,-999,-99.99,,,-99.99,,2013-06-06 04:00:00,
2013-06-06 00:53:00,67.0,-99.9,-100.00,NW,309,7.0,-999.0,-999,-99.99,,,-99.99,,2013-06-06 04:53:00,
2013-06-06 01:00:00,66.0,-99.9,-100.00,NNW,330,6.0,-999.0,-999,-99.99,,,-99.99,,2013-06-06 05:00:00,
2013-06-06 01:52:00,66.0,-99.9,-100.00,NNW,330,6.0,-999.0,-999,-99.99,,,-99.99,,2013-06-06 05:52:00,
2013-06-06 02:00:00,66.0,-99.9,-100.00,NNE,14,5.0,-999.0,-999,-99.99,,,-99.99,,2013-06-06 06:00:00,
2013-06-06 02:52:00,66.0,-99.9,-100.00,NNE,14,5.0,-999.0,-999,-99.99,,,-99.99,,2013-06-06 06:52:00,
2013-06-06 03:00:00,65.0,-99.9,-100.00,NNE,19,6.0,-999.0,-999,-99.99,,,-99.99,,2013-06-06 07:00:00,
2013-06-06 03:53:00,65.0,-99.9,-100.00,NNE,19,6.0,-999.0,-999,-99.99,,,-99.99,,2013-06-06 07:53:00,
2013-06-06 04:00:00,63.0,-99.9,-100.00,NNE,27,5.0,-999.0,-999,-99.99,,,-99.99,,2013-06-06 08:00:00,
2013-06-06 04:52:00,63.0,-99.9,-100.00,NNE,27,5.0,-999.0,-999,-99.99,,,-99.99,,2013-06-06 08:52:00,
2013-06-06 06:00:00,60.0,-99.9,-100.00,NW,319,5.0,-999.0,-999,-99.99,,,-99.99,,2013-06-06 10:00:00,
2013-06-06 06:53:00,60.0,-99.9,-100.00,NW,319,5.0,-999.0,-999,-99.99,,,-99.99,,2013-06-06 10:53:00,
2013-06-06 07:00:00,58.0,-99.9,-100.00,NNW,333,2.0,-999.0,-999,-99.99,,,-99.99,,2013-06-06 11:00:00,
2013-06-06 07:52:00,58.0,-99.9,-100.00,NNW,333,2.0,-999.0,-999,-99.99,,,-99.99,,2013-06-06 11:52:00,
2013-06-06 08:00:00,57.0,-99.9,-100.00,NW,311,2.0,-999.0,-999,-99.99,,,-99.99,,2013-06-06 12:00:00,
2013-06-06 08:53:00,57.0,-99.9,-100.00,NW,311,2.0,-999.0,-999,-99.99,,,-99.99,,2013-06-06 12:53:00,
2013-06-06 13:00:00,68.0,-99.9,-100.00,NW,321,5.0,-999.0,-999,-99.99,,,-99.99,,2013-06-06 17:00:00,
2013-06-06 13:53:00,68.0,-99.9,-100.00,NW,321,5.0,-999.0,-999,-99.99,,,-99.99,,2013-06-06 17:53:00,
2013-06-06 14:00:00,70.0,-99.9,-100.00,NNW,335,5.0,-999.0,-999,-99.99,,,-99.99,,2013-06-06 18:00:00,
2013-06-06 14:53:00,70.0,-99.9,-100.00,NNW,335,5.0,-999.0,-999,-99.99,,,-99.99,,2013-06-06 18:53:00,
2013-06-06 15:00:00,73.0,-99.9,-100.00,NNW,336,5.0,-999.0,-999,-99.99,,,-99.99,,2013-06-06 19:00:00,
2013-06-06 15:53:00,73.0,-99.9,-100.00,NNW,336,5.0,-999.0,-999,-99.99,,,-99.99,,2013-06-06 19:53:00,
2013-06-06 17:00:00,79.0,-99.9,-100.00,WNW,293,3.0,-999.0,-999,-99.99,,,-99.99,,2013-06-06 21:00:00,
2013-06-06 17:53:00,79.0,-99.9,-100.00,WNW,293,3.0,-999.0,-999,-99.99,,,-99.99,,2013-06-06 21:53:00,
2013-06-06 18:00:00,81.0,-99.9,-100.00,NW,309,5.0,-999.0,-999,-99.99,,,-99.99,,2013-06-06 22:00:00,
2013-06-06 18:53:00,81.0,-99.9,-100.00,NW,309,5.0,-999.0,-999,-99.99,,,-99.99,,2013-06-06 22:53:00,